#timestamp,LO_Frequency,Hit,StdDev 
1513274415.6,286046991.4,N
1513274435.5,286046991.4,N
1513274455.3,286046994.0,N
1513274475.1,286047001.5,N
1513274495.9,286047010.0,N
1513274515.7,286047002.9,N
1513274535.6,286046998.9,N
1513274555.4,286047004.8,N
1513274575.2,286047004.9,N
1513274595.1,286046998.4,N
1513274596.0,286046998.4,N
1513274615.8,286047000.7,N
1513274635.6,286046998.9,N
1513274655.5,286046997.1,N
1513274675.3,286047000.9,N
1513274695.2,286047001.1,N
1513274715.9,286046995.3,N
1513274735.7,286046998.3,N
1513274755.6,286046995.1,N
1513274775.4,286046994.7,N
1513274795.2,286046992.7,N
1513274815.1,286046990.4,N
1513274816.0,286046990.4,N
1513274835.8,286046988.8,N
1513274855.7,286046987.2,N
1513274875.5,286046990.5,N
1513274895.3,286046987.8,N
1513274915.2,286046983.8,N
1513274935.0,286046989.2,N
1513274935.9,286046989.2,N
1513274955.8,286047002.8,N
1513274975.6,286046997.0,N
1513274995.4,286046998.3,N
1513275015.3,286047004.2,N
1513275035.1,286046998.4,N
1513275055.8,286046997.5,N
1513275075.7,286046999.4,N
1513275095.5,286047000.7,N
1513275115.4,286046999.6,N
1513275135.2,286046997.0,N
1513275155.0,286046998.7,N
1513275155.9,286046998.7,N
1513275175.8,286046997.9,N
1513275195.6,286046995.4,N
1513275215.5,286047004.2,N
1513275235.3,286047009.7,N
1513275255.1,286047011.1,N
1513275275.9,286047009.2,N
1513275295.7,286047003.1,N
1513275315.5,286047008.4,N
1513275335.4,286047005.0,N
1513275355.2,286047004.3,N
1513275375.1,286047005.2,N
1513275376.0,286047005.2,N
1513275395.8,286047002.7,N
1513275415.6,286046998.4,N
1513275435.5,286047005.9,N
1513275455.3,286047003.6,N
1513275475.2,286046998.7,N
1513275495.9,286047001.3,N
1513275515.7,286047007.3,N
1513275535.6,286047007.2,N
1513275555.4,286047008.9,N
1513275575.2,286047009.1,N
1513275595.1,286047008.1,N
1513275596.0,286047008.1,N
1513275615.8,286047011.3,N
1513275635.7,286047007.7,N
1513275655.5,286047014.6,Y
1513275675.3,286047008.5,P
1513275695.2,286047003.6,N
1513275715.0,286047007.1,P
1513275715.9,286047007.1,Y
1513275735.8,286046998.6,P
1513275755.6,286046996.2,N
1513275775.4,286046997.4,N
1513275795.3,286046996.3,N
1513275815.1,286046997.1,N
1513275835.9,286047001.6,N
1513275855.7,286046995.3,N
1513275875.5,286046996.4,N
1513275895.4,286046995.7,N
1513275915.2,286046995.7,N
1513275935.0,286047000.2,N
1513275936.0,286047000.2,N
1513275955.8,286047008.9,Y
1513275975.6,286047014.3,P
1513275995.5,286047026.2,P
1513276015.3,286047028.3,N
1513276035.1,286047031.2,N
1513276055.9,286047039.4,Y
1513276075.7,286047026.8,P
1513276095.6,286047026.4,P
1513276115.4,286047011.8,P
1513276135.2,286047011.3,N
1513276155.1,286047021.0,Y
1513276156.0,286047021.0,P
1513276175.8,286047005.1,P
1513276195.7,286047010.2,N
1513276215.5,286047011.7,N
1513276235.3,286047005.4,N
1513276255.2,286046997.4,N
1513276275.0,286046998.8,N
1513276275.9,286046998.8,N
1513276295.8,286046997.2,N
1513276315.6,286046994.2,N
1513276335.4,286046994.6,N
1513276355.3,286046990.2,N
1513276375.1,286046997.7,N
1513276395.8,286046994.2,N
1513276415.7,286046993.7,N
1513276435.5,286046990.9,N
1513276455.4,286046989.1,N
1513276475.2,286046981.8,N
1513276495.0,286046976.0,N
1513276495.9,286046976.0,N
1513276515.8,286046985.6,N
1513276535.6,286046982.9,N
1513276555.5,286046978.9,N
1513276575.3,286046985.3,N
1513276595.1,286046985.9,N
1513276615.9,286046988.4,N
1513276635.7,286046986.7,N
1513276655.5,286046985.9,N
1513276675.4,286046984.2,N
1513276695.2,286046987.3,N
1513276715.1,286046993.8,N
1513276716.0,286046993.8,N
1513276735.8,286047001.3,N
1513276755.6,286047009.7,N
1513276775.5,286047008.3,N
1513276795.3,286047007.1,N
1513276815.2,286047006.8,N
1513276835.9,286047010.2,N
1513276855.7,286047013.1,N
1513276875.6,286047015.6,N
1513276895.4,286047025.0,N
1513276915.2,286047023.9,N
1513276935.1,286047029.8,N
1513276936.0,286047029.8,N
1513276955.8,286047030.2,N
1513276975.7,286047035.7,N
1513276995.5,286047035.5,N
1513277015.3,286047039.1,N
1513277035.2,286047040.5,N
1513277055.0,286047047.8,N
1513277055.9,286047047.8,N
1513277075.8,286047053.7,N
1513277095.6,286047054.4,N
1513277115.4,286047060.0,N
1513277135.3,286047059.8,N
1513277155.1,286047060.3,N
1513277175.9,286047062.9,N
1513277195.7,286047058.9,N
1513277215.5,286047058.9,N
1513277235.4,286047066.8,N
1513277255.2,286047064.3,N
1513277275.0,286047054.1,N
1513277275.9,286047054.1,N
1513277295.8,286047055.1,N
1513277315.6,286047056.4,N
1513277335.5,286047058.8,Y
1513277355.3,286047018.6,P
1513277375.1,286047020.5,N
1513277395.9,286047030.0,N
1513277415.7,286047028.1,Y
1513277435.6,286046997.9,P
1513277455.4,286046993.1,N
1513277475.2,286046990.6,N
1513277495.1,286046991.1,N
1513277496.0,286046991.1,N
1513277515.8,286046996.2,N
1513277535.7,286047002.1,N
1513277555.5,286047003.3,N
1513277575.3,286047003.3,N
1513277595.2,286047005.6,N
1513277615.0,286047003.9,N
1513277615.9,286047003.9,N
1513277635.7,286047000.5,N
1513277655.6,286046993.9,N
1513277675.4,286046988.1,N
1513277695.3,286046981.1,N
1513277715.1,286046985.1,N
1513277716.0,286046985.1,N
1513277735.8,286046983.9,N
1513277755.7,286046986.0,N
1513277775.5,286046986.7,N
1513277795.4,286046982.1,N
1513277815.2,286046984.2,N
1513277835.0,286046982.3,N
1513277835.9,286046982.3,N
1513277855.8,286046992.8,N
1513277875.6,286046994.8,N
1513277895.4,286046996.2,N
1513277915.3,286047002.5,N
1513277935.1,286046996.8,N
1513277955.9,286046997.9,N
1513277975.7,286046995.7,N
1513277995.5,286046991.7,N
